Lid_Strength_Index
2 2 2 2 1 1 3 4 4 5 6 6 5 4 5 5 5 6 6 6 8 9 10 11 11 11 11 11 11 11 10 10 9 8 7 7 8 8 6 5 6 7 6
2 2 2 2 2 4 4 5 5 6 6 6 4 5 4 5 5 6 6 7 8 9 11 11 11 10 11 12 11 10 10 10 8 9 8 8 9 7 5 6 6 6 6
2 2 2 3 4 4 5 5 6 6 6 6 6 6 5 5 5 6 6 8 9 10 11 11 11 11 11 11 10 10 10 8 10 10 8 8 8 6 6 6 6 6 6
2 2 4 4 4 5 6 6 7 7 7 8 7 7 7 6 6 7 7 8 9 10 10 10 10 10 10 10 9 10 10 10 10 10 9 9 8 7 7 8 8 7 8
3 5 5 5 6 7 8 8 8 9 9 9 9 9 9 7 7 9 10 11 12 12 11 11 10 8 7 7 9 10 10 11 11 10 10 10 9 9 9 8 8 8 8
4 6 6 7 8 9 10 11 11 12 12 10 10 10 9 9 8 8 11 12 12 12 13 12 11 9 9 8 7 7 8 11 12 11 11 10 9 9 8 8 8 9 10
6 7 7 8 9 10 11 12 14 14 12 12 12 10 10 9 9 10 10 13 13 14 13 13 11 10 10 11 10 9 9 8 8 10 11 9 9 9 9 8 9 9 10
7 7 8 10 11 12 14 14 15 13 13 13 13 12 11 11 10 11 11 13 13 13 12 12 12 12 11 11 12 12 11 11 10 8 9 9 9 9 8 8 8 8 8
7 9 9 11 12 14 15 14 14 14 15 14 14 13 13 13 11 11 12 13 13 13 12 10 12 12 10 10 12 12 12 10 7 6 7 8 9 9 7 8 9 10 11
9 10 10 12 14 15 15 14 14 15 14 14 14 14 12 14 11 12 12 13 14 13 13 12 10 11 11 10 12 12 12 10 10 10 10 10 9 8 7 8 9 10 11
8 10 11 13 14 13 14 14 15 15 15 15 16 16 15 14 13 11 11 14 13 13 14 14 13 11 11 10 10 11 11 10 10 11 11 11 10 9 8 8 8 9 10
9 10 12 13 13 14 14 15 15 15 16 16 16 16 16 15 11 11 11 11 11 14 14 14 13 11 11 10 10 9 9 10 11 11 12 12 12 11 10 8 8 8 8
10 12 13 13 12 13 14 16 16 16 16 16 16 16 16 15 14 10 11 11 10 13 13 11 11 11 11 11 9 9 10 12 12 13 13 13 12 11 9 9 8 8 8
11 11 11 12 12 14 15 15 16 16 16 16 15 16 15 15 15 15 14 14 12 13 13 14 12 11 10 11 11 11 12 12 13 14 13 12 12 12 10 9 10 10 10
11 12 12 13 15 16 16 16 16 17 15 15 17 15 14 15 14 13 14 14 15 13 14 14 14 14 13 13 13 13 13 13 14 14 14 13 13 13 11 10 10 10 11
13 13 14 15 16 16 16 16 13 13 13 12 12 13 13 12 12 12 12 12 13 12 15 15 15 15 15 15 15 15 14 14 15 14 14 13 13 13 11 11 11 11 11
14 15 15 15 15 15 15 15 15 13 11 12 12 12 12 12 12 12 13 13 13 13 15 16 16 16 16 15 15 15 16 15 15 14 14 14 13 13 11 11 12 12 12
15 14 15 15 15 15 14 14 13 14 14 14 12 12 12 12 12 12 13 14 16 15 16 16 16 16 16 16 16 16 16 15 15 15 14 14 13 13 11 12 12 13 12
15 15 15 15 15 14 14 14 14 14 14 14 14 13 13 13 13 13 13 16 16 16 17 16 17 16 16 16 16 15 15 15 15 15 15 14 13 12 11 11 12 13 13
15 14 14 14 14 14 13 14 14 14 14 15 15 16 15 15 16 17 16 16 16 17 17 17 17 16 16 16 16 15 15 15 15 15 14 14 13 10 10 11 12 12 12
13 13 13 13 13 13 13 14 14 14 15 15 16 15 15 16 17 17 17 16 17 17 17 17 17 17 16 16 16 15 15 15 15 15 14 13 12 10 10 10 11 11 11
13 13 13 13 12 13 13 13 13 14 15 15 16 15 15 16 16 17 16 16 17 17 17 17 18 17 17 16 16 16 15 16 15 14 13 12 11 9 9 10 10 11 11
13 13 13 13 13 13 13 14 14 15 15 15 15 15 15 16 16 16 16 16 16 17 17 17 16 16 16 15 15 16 16 15 15 15 13 11 10 9 10 10 11 11 11
13 13 13 13 13 13 14 14 15 14 14 15 15 15 15 16 16 16 16 16 17 17 17 16 16 16 15 15 14 15 15 14 14 14 13 11 10 8 9 10 10 11 12
13 13 13 13 13 14 14 14 15 14 14 14 15 16 16 15 15 15 16 16 16 16 16 16 15 15 15 14 14 14 14 14 13 12 12 11 10 9 8 9 10 11 12
13 13 13 13 13 14 14 15 15 15 15 15 16 16 15 15 15 15 15 15 16 16 16 15 15 14 14 14 14 13 14 14 14 13 12 11 11 11 10 9 10 11 11